When you browse on this site, cookies collect data to enhance your experience and personalize the content and advertising you see.
Visit our Privacy Policy to learn more. By continuing to use the site, you agree to this use of cookies and data.
  • In Österreich
  • Länderverzeichnis
  • Für 7 Tage
  • Wassertemperatur
  • Wetterkarte
  • News
  • Widgets
  • user-avatar
    Anmelden

    Stündliche Wetter Kolno

    Heute, 4 Juni, Donnerstag

    Zeit Temperatur Niederschläge Wind Luftdruck Luftfeuchtigkeit
    00:00 +6°C° 0 mm 2 m/S 741 mmHg 96%
    01:00 +6°C° 0 mm 2 m/S 741 mmHg 96%
    02:00 +5°C° 0 mm 2 m/S 741 mmHg 97%
    03:00 +6°C° 0 mm 2 m/S 741 mmHg 98%
    04:00 +6°C° 0 mm 2 m/S 741 mmHg 98%
    05:00 +6°C° 0 mm 2 m/S 741 mmHg 98%
    06:00 +7°C° 0 mm 2 m/S 741 mmHg 94%
    07:00 +9°C° 0 mm 2 m/S 741 mmHg 90%
    08:00 +12°C° 0 mm 2 m/S 741 mmHg 86%
    09:00 +13°C° 0.3 mm 2 m/S 741 mmHg 81%
    10:00 +13°C° 0.3 mm 3 m/S 740 mmHg 76%
    11:00 +14°C° 0.3 mm 3 m/S 740 mmHg 70%
    12:00 +16°C° 0.6 mm 3 m/S 740 mmHg 71%
    13:00 +16°C° 0.6 mm 3 m/S 740 mmHg 72%
    14:00 +16°C° 0 mm 3 m/S 740 mmHg 72%
    15:00 +16°C° 0.5 mm 3 m/S 740 mmHg 73%
    16:00 +16°C° 0.5 mm 3 m/S 740 mmHg 74%
    17:00 +16°C° 0.5 mm 3 m/S 739 mmHg 75%
    18:00 +14°C° 0.5 mm 3 m/S 740 mmHg 80%
    19:00 +14°C° 0.5 mm 2 m/S 740 mmHg 85%
    20:00 +12°C° 0.5 mm 2 m/S 740 mmHg 90%
    21:00 +12°C° 0.2 mm 2 m/S 740 mmHg 92%
    22:00 +10°C° 0.2 mm 2 m/S 740 mmHg 94%
    23:00 +9°C° 0.2 mm 2 m/S 740 mmHg 95%

    Morgen, 5 Juni, Freitag

    Zeit Temperatur Niederschläge Wind Luftdruck Luftfeuchtigkeit
    00:00 +9°C° 0 mm 2 m/S 740 mmHg 95%
    01:00 +8°C° 0 mm 2 m/S 740 mmHg 96%
    02:00 +9°C° 0 mm 1 m/S 740 mmHg 96%
    03:00 +9°C° 0 mm 1 m/S 740 mmHg 96%
    04:00 +9°C° 0 mm 1 m/S 740 mmHg 96%
    05:00 +9°C° 0 mm 1 m/S 739 mmHg 96%
    06:00 +11°C° 0 mm 1 m/S 740 mmHg 91%
    07:00 +13°C° 0 mm 1 m/S 740 mmHg 87%
    08:00 +15°C° 0 mm 1 m/S 740 mmHg 82%
    09:00 +17°C° 0 mm 2 m/S 740 mmHg 77%
    10:00 +19°C° 0 mm 3 m/S 740 mmHg 71%
    11:00 +21°C° 0 mm 3 m/S 741 mmHg 66%
    12:00 +20°C° 0.8 mm 4 m/S 741 mmHg 72%
    13:00 +20°C° 0.8 mm 4 m/S 741 mmHg 78%
    14:00 +20°C° 0.8 mm 5 m/S 741 mmHg 83%
    15:00 +20°C° 0.3 mm 5 m/S 741 mmHg 81%
    16:00 +21°C° 0.3 mm 4 m/S 741 mmHg 79%
    17:00 +21°C° 0.3 mm 4 m/S 741 mmHg 77%
    18:00 +20°C° 0 mm 3 m/S 741 mmHg 80%
    19:00 +18°C° 0 mm 3 m/S 741 mmHg 84%
    20:00 +17°C° 0 mm 3 m/S 741 mmHg 88%
    21:00 +17°C° 0.3 mm 3 m/S 741 mmHg 90%
    22:00 +16°C° 0.3 mm 3 m/S 742 mmHg 93%
    23:00 +16°C° 0.3 mm 3 m/S 742 mmHg 95%

    übermorgen, 6 Juni, Samstag

    Zeit Temperatur Niederschläge Wind Luftdruck Luftfeuchtigkeit
    00:00 +16°C° 0 mm 3 m/S 742 mmHg 95%
    01:00 +16°C° 0 mm 3 m/S 742 mmHg 95%
    02:00 +14°C° 0 mm 3 m/S 742 mmHg 95%
    03:00 +16°C° 0.1 mm 3 m/S 742 mmHg 95%
    04:00 +16°C° 0.1 mm 3 m/S 742 mmHg 94%
    05:00 +16°C° 0.1 mm 3 m/S 742 mmHg 94%
    06:00 +15°C° 0 mm 4 m/S 743 mmHg 93%
    07:00 +17°C° 0 mm 4 m/S 744 mmHg 91%
    08:00 +16°C° 0 mm 5 m/S 744 mmHg 90%
    09:00 +19°C° 0.1 mm 4 m/S 745 mmHg 85%
    10:00 +20°C° 0.1 mm 4 m/S 745 mmHg 80%
    11:00 +21°C° 0.1 mm 4 m/S 746 mmHg 75%
    12:00 +22°C° 0.1 mm 3 m/S 746 mmHg 71%
    13:00 +24°C° 0.1 mm 3 m/S 746 mmHg 68%
    14:00 +25°C° 0.1 mm 3 m/S 747 mmHg 64%
    15:00 +25°C° 0.1 mm 3 m/S 747 mmHg 62%
    16:00 +25°C° 0.1 mm 2 m/S 747 mmHg 61%
    17:00 +25°C° 0.1 mm 2 m/S 747 mmHg 59%
    18:00 +23°C° 0 mm 2 m/S 747 mmHg 67%
    19:00 +21°C° 0 mm 1 m/S 747 mmHg 75%
    20:00 +20°C° 0 mm 1 m/S 748 mmHg 83%
    21:00 +19°C° 0 mm 1 m/S 748 mmHg 85%
    22:00 +18°C° 0 mm 1 m/S 749 mmHg 87%
    23:00 +16°C° 0 mm 1 m/S 749 mmHg 88%

    7 Juni, Sonntag

    Zeit Temperatur Niederschläge Wind Luftdruck Luftfeuchtigkeit
    00:00 +16°C° 0 mm 1 m/S 749 mmHg 90%
    01:00 +16°C° 0 mm 2 m/S 749 mmHg 91%
    02:00 +15°C° 0 mm 2 m/S 749 mmHg 93%
    03:00 +16°C° 0 mm 2 m/S 749 mmHg 92%
    04:00 +17°C° 0 mm 3 m/S 749 mmHg 90%
    05:00 +17°C° 0 mm 3 m/S 749 mmHg 89%
    06:00 +18°C° 0.1 mm 4 m/S 749 mmHg 87%
    07:00 +19°C° 0.1 mm 4 m/S 749 mmHg 86%
    08:00 +20°C° 0.1 mm 5 m/S 749 mmHg 84%
    09:00 +22°C° 0 mm 5 m/S 749 mmHg 75%
    10:00 +25°C° 0 mm 5 m/S 749 mmHg 66%
    11:00 +27°C° 0 mm 5 m/S 749 mmHg 56%
    12:00 +28°C° 0 mm 5 m/S 749 mmHg 54%
    13:00 +28°C° 0 mm 5 m/S 749 mmHg 52%
    14:00 +29°C° 0 mm 5 m/S 749 mmHg 50%
    15:00 +28°C° 0 mm 5 m/S 749 mmHg 53%
    16:00 +28°C° 0 mm 5 m/S 748 mmHg 56%
    17:00 +28°C° 0 mm 5 m/S 748 mmHg 59%
    18:00 +26°C° 0 mm 4 m/S 748 mmHg 65%
    19:00 +23°C° 0 mm 4 m/S 748 mmHg 72%
    20:00 +21°C° 0 mm 3 m/S 748 mmHg 79%
    21:00 +21°C° 0 mm 3 m/S 749 mmHg 82%
    22:00 +20°C° 0 mm 3 m/S 749 mmHg 85%
    23:00 +19°C° 0 mm 3 m/S 750 mmHg 89%

    8 Juni, Montag

    Zeit Temperatur Niederschläge Wind Luftdruck Luftfeuchtigkeit
    00:00 +18°C° 0 mm 3 m/S 750 mmHg 91%
    01:00 +18°C° 0 mm 3 m/S 750 mmHg 93%
    02:00 +17°C° 0 mm 3 m/S 750 mmHg 96%
    03:00 +17°C° 0 mm 3 m/S 750 mmHg 95%
    04:00 +17°C° 0 mm 3 m/S 749 mmHg 94%
    05:00 +17°C° 0 mm 3 m/S 749 mmHg 93%
    06:00 +19°C° 0 mm 3 m/S 749 mmHg 87%
    07:00 +21°C° 0 mm 3 m/S 750 mmHg 82%
    08:00 +24°C° 0 mm 3 m/S 750 mmHg 76%
    09:00 +25°C° 0 mm 4 m/S 750 mmHg 68%
    10:00 +27°C° 0 mm 4 m/S 750 mmHg 61%
    11:00 +28°C° 0 mm 5 m/S 750 mmHg 53%
    12:00 +29°C° 0 mm 5 m/S 750 mmHg 53%
    13:00 +29°C° 0 mm 5 m/S 750 mmHg 52%
    14:00 +29°C° 0 mm 5 m/S 749 mmHg 51%
    15:00 +29°C° 0 mm 5 m/S 749 mmHg 55%
    16:00 +28°C° 0 mm 4 m/S 749 mmHg 58%
    17:00 +28°C° 0 mm 4 m/S 749 mmHg 62%
    18:00 +26°C° 0 mm 3 m/S 748 mmHg 68%
    19:00 +25°C° 0 mm 3 m/S 748 mmHg 73%
    20:00 +22°C° 0 mm 3 m/S 748 mmHg 79%
    21:00 +21°C° 0 mm 3 m/S 749 mmHg 82%
    22:00 +20°C° 0 mm 3 m/S 749 mmHg 86%
    23:00 +20°C° 0 mm 3 m/S 749 mmHg 89%

    9 Juni, Dienstag

    Zeit Temperatur Niederschläge Wind Luftdruck Luftfeuchtigkeit
    00:00 +19°C° 0 mm 3 m/S 749 mmHg 90%
    01:00 +19°C° 0 mm 3 m/S 749 mmHg 91%
    02:00 +19°C° 0 mm 3 m/S 749 mmHg 92%
    03:00 +19°C° 0 mm 3 m/S 749 mmHg 92%
    04:00 +19°C° 0 mm 3 m/S 749 mmHg 91%
    05:00 +19°C° 0 mm 4 m/S 748 mmHg 91%
    06:00 +21°C° 0 mm 4 m/S 749 mmHg 84%
    07:00 +22°C° 0 mm 4 m/S 749 mmHg 78%
    08:00 +25°C° 0 mm 4 m/S 749 mmHg 72%
    09:00 +26°C° 0 mm 5 m/S 749 mmHg 66%
    10:00 +28°C° 0 mm 5 m/S 749 mmHg 60%
    11:00 +29°C° 0 mm 6 m/S 749 mmHg 54%
    12:00 +29°C° 0 mm 6 m/S 749 mmHg 53%
    13:00 +30°C° 0 mm 6 m/S 749 mmHg 52%
    14:00 +30°C° 0 mm 6 m/S 748 mmHg 51%
    15:00 +30°C° 0 mm 5 m/S 748 mmHg 54%
    16:00 +30°C° 0 mm 5 m/S 748 mmHg 56%
    17:00 +29°C° 0 mm 4 m/S 748 mmHg 59%
    18:00 +28°C° 0.1 mm 4 m/S 748 mmHg 66%
    19:00 +26°C° 0.1 mm 3 m/S 748 mmHg 72%
    20:00 +24°C° 0.1 mm 3 m/S 748 mmHg 79%
    21:00 +22°C° 0 mm 3 m/S 749 mmHg 81%
    22:00 +22°C° 0 mm 3 m/S 749 mmHg 83%
    23:00 +21°C° 0 mm 3 m/S 749 mmHg 85%
    Mehr zeigen